SCP
2 2 1 1 1 1 1 1 1 1 1 1 1 1 1 1 1 1 0 0 1 1 1 1 1 1 1 1 1 1 2 2 2 2 3 3 3 4 3 3 3 3 2
1 1 1 1 1 1 1 1 1 1 1 1 1 1 1 1 1 1 1 0 1 1 1 1 1 1 1 1 1 1 1 2 2 2 2 2 3 3 3 4 4 3 3
1 1 1 1 1 1 1 1 1 1 1 1 1 1 1 0 0 1 1 1 1 1 1 1 1 1 1 1 1 1 1 1 1 1 1 1 2 2 3 3 4 4 4
1 1 1 1 1 1 1 1 1 1 1 1 1 1 1 0 0 0 0 0 1 1 1 1 1 1 1 1 1 1 1 1 1 1 1 1 1 1 2 2 3 3 3
1 1 1 1 1 1 1 1 1 1 1 1 1 1 1 0 0 0 0 0 0 0 0 0 0 0 1 1 1 1 1 1 1 1 1 1 1 1 1 1 1 2 2
1 1 1 1 1 1 1 1 1 1 1 1 1 1 1 0 0 0 0 0 0 0 0 0 0 0 0 0 1 1 1 1 1 1 1 1 1 1 1 1 1 1 1
1 1 1 1 1 1 1 1 1 1 1 1 1 1 1 1 0 0 0 0 0 0 0 0 0 0 0 0 0 0 1 1 1 1 1 1 1 1 1 1 1 1 1
1 1 1 1 1 1 1 1 1 1 0 1 1 1 0 0 0 0 0 0 0 0 0 0 0 0 0 0 0 0 0 1 1 1 1 1 1 1 1 1 1 1 1
1 1 1 1 1 1 1 0 0 0 0 0 0 0 0 0 0 0 0 0 0 0 0 0 0 0 0 0 0 0 0 0 1 1 1 1 1 1 1 1 1 2 2
1 1 1 1 1 0 0 0 0 0 0 0 0 0 0 0 0 0 0 0 0 0 0 0 0 0 0 0 0 0 0 0 1 1 1 1 1 1 1 1 1 2 2
0 0 0 0 0 0 0 0 0 0 0 0 0 0 0 0 0 0 0 0 0 0 0 0 0 0 0 0 0 0 0 0 0 1 1 1 1 1 1 1 1 2 2
0 0 0 0 0 0 0 0 0 0 0 0 0 0 0 0 0 0 0 0 0 0 0 0 0 0 0 0 0 0 0 0 0 0 1 1 1 1 1 1 1 1 1
0 0 0 0 0 0 0 0 0 0 0 0 0 0 0 0 0 0 0 0 0 0 0 0 0 0 0 0 0 0 0 0 0 0 0 0 0 1 1 1 1 1 1
0 0 0 0 0 0 0 0 0 0 0 0 0 0 0 0 0 0 0 0 0 0 0 0 0 0 0 0 0 0 0 0 0 0 0 0 0 0 0 0 0 1 1
0 0 0 0 0 0 0 0 0 0 0 0 0 0 0 0 0 0 0 0 0 0 0 0 0 0 0 0 0 0 0 0 0 0 0 0 0 0 0 0 0 0 0
0 0 0 0 0 0 0 0 0 0 0 0 0 0 0 0 0 0 0 0 0 0 0 0 0 0 0 0 0 0 0 0 0 0 0 0 0 0 0 0 0 0 0
0 0 0 0 0 0 0 0 0 0 0 0 0 0 0 0 0 0 0 0 0 0 0 0 0 0 0 0 0 0 0 0 0 0 0 0 0 0 0 0 0 0 0
0 0 0 0 0 0 0 0 0 0 0 0 0 0 0 0 0 0 0 0 0 0 0 0 0 0 0 0 0 0 0 0 0 0 0 0 0 0 0 0 0 0 0
0 0 0 0 0 0 0 0 0 0 0 0 0 0 0 0 0 0 0 0 0 0 0 0 0 0 0 0 0 0 0 0 0 0 0 0 0 0 0 0 0 0 0
0 0 0 0 0 0 0 0 0 0 0 0 0 0 0 0 0 0 0 0 0 0 0 0 0 0 0 0 0 0 0 0 0 0 0 0 0 0 0 0 0 0 0
0 0 0 0 0 0 0 0 0 0 0 0 0 0 0 0 0 0 0 0 0 0 0 0 0 0 0 0 0 0 0 0 0 0 0 0 0 0 0 0 0 0 0
0 0 0 0 0 0 0 0 0 0 0 0 0 0 0 0 0 0 0 0 0 0 0 0 0 0 0 0 0 0 0 0 0 0 0 0 0 0 0 0 0 0 0
0 0 0 0 0 0 0 0 0 0 0 0 0 0 0 0 0 0 0 0 0 0 0 0 0 0 0 0 0 0 0 0 0 0 0 0 0 0 0 0 0 0 0
0 0 0 0 0 0 0 0 0 0 0 0 0 0 0 0 0 0 0 0 0 0 0 0 0 0 0 0 0 0 0 0 0 0 0 0 0 0 0 0 0 0 0
0 0 0 0 0 0 0 0 0 0 0 0 0 0 0 0 0 0 0 0 0 0 0 0 0 0 0 0 0 0 0 0 0 0 0 0 0 0 0 0 0 0 0
0 0 0 0 0 0 0 0 0 0 0 0 0 0 0 0 0 0 0 0 0 0 0 0 0 0 0 0 0 0 0 0 0 0 0 0 0 0 0 0 0 0 0
Wind_Speed
2 2 1 1 1 1 1 1 1 2 2 2 2 2 2 2 2 1 1 2 3 3 5 6 7 7 7 7 7 7 6 7 7 7 7 8 8 8 9 8 7 7 7
2 2 1 2 2 1 1 1 2 2 2 1 2 2 2 2 2 2 1 2 3 3 4 5 6 7 7 7 6 6 5 6 6 7 7 7 7 8 8 8 8 7 7
2 2 2 2 2 2 2 1 2 2 2 2 2 2 2 2 2 2 1 1 2 3 4 5 5 6 7 7 7 7 6 6 6 6 7 8 8 8 9 8 8 8 8
3 2 2 2 2 2 2 1 1 2 2 2 2 2 2 2 2 2 1 1 1 1 1 3 4 5 6 7 7 7 7 6 6 6 7 7 7 8 9 9 8 8 9
3 2 2 2 2 2 2 2 1 1 2 2 2 2 2 2 2 2 1 1 1 1 1 1 2 3 4 5 7 7 7 6 6 6 6 6 7 8 8 9 9 9 9
3 3 2 2 2 2 2 2 1 1 1 2 3 3 2 2 2 1 1 1 1 0 1 1 1 1 2 4 6 8 8 7 6 6 6 6 7 7 8 8 8 9 9
3 2 2 2 2 2 2 3 2 1 2 2 2 2 2 2 1 1 1 1 1 1 1 1 0 0 1 3 5 7 7 8 7 7 7 7 7 7 7 8 8 8 9
2 2 2 2 2 2 2 3 3 1 1 2 1 1 2 2 2 1 1 1 1 2 2 3 2 1 1 1 2 4 6 7 8 8 8 8 8 8 9 9 8 9 9
1 2 2 2 2 2 1 2 2 2 1 1 1 0 0 1 2 2 1 1 1 2 2 2 3 2 2 1 2 3 5 6 8 9 9 9 9 9 9 9 9 9 9
1 1 1 1 1 1 1 1 2 1 1 1 1 1 0 0 1 2 2 1 2 2 2 3 3 3 2 2 2 5 6 6 7 8 9 9 10 10 10 10 10 10 9
1 1 0 0 0 0 0 1 1 2 1 0 1 1 2 1 1 2 3 2 2 2 2 2 2 2 2 2 2 4 6 7 8 9 10 10 10 10 10 10 10 9 8
1 1 0 0 0 0 0 1 0 1 1 1 1 1 1 1 1 1 3 3 3 2 2 2 1 1 1 2 3 5 6 8 9 9 10 10 10 10 10 10 9 8 8
1 1 1 1 1 1 1 1 1 1 1 1 1 1 1 2 2 2 2 3 4 3 2 2 1 0 1 1 2 5 6 8 9 10 10 10 9 9 9 9 9 9 8
1 1 1 1 1 1 1 1 1 1 1 2 2 2 1 2 2 2 2 2 4 3 2 3 1 1 1 1 2 5 4 7 8 9 10 9 8 8 8 8 8 8 8
1 2 2 2 2 2 2 1 1 2 2 2 2 2 2 2 2 2 2 2 2 4 4 2 1 2 2 1 3 2 3 6 8 8 8 8 8 7 7 8 8 8 8
2 2 2 2 2 2 2 2 2 2 2 2 2 2 2 2 2 2 2 2 2 3 4 2 2 3 3 3 5 3 3 7 8 8 8 7 8 7 8 8 8 8 7
2 3 3 3 3 3 2 2 3 3 3 3 3 3 3 3 2 2 2 2 2 3 5 4 3 3 4 4 4 3 3 3 4 7 7 7 7 8 8 7 7 7 7
2 3 3 3 3 3 3 3 4 3 3 4 3 3 4 3 3 2 2 3 3 3 4 6 4 3 4 4 3 4 4 4 3 6 7 8 8 8 8 8 7 7 8
3 3 3 3 3 3 3 4 4 4 4 4 4 4 4 3 4 3 3 3 3 4 3 4 5 3 3 3 3 4 4 3 4 5 7 7 8 8 8 8 8 7 8
3 3 3 4 4 4 4 4 4 4 4 4 4 4 4 4 4 4 4 4 3 3 3 4 4 4 3 3 3 3 4 3 4 4 5 6 7 8 8 8 7 7 7
3 3 3 4 4 4 4 4 4 5 4 4 4 4 5 5 6 5 4 3 3 3 3 3 4 4 3 3 3 3 4 4 4 3 3 4 4 3 4 5 6 7 8
3 4 4 4 5 4 6 8 6 4 4 5 5 4 5 5 6 8 8 8 6 5 4 4 4 4 5 4 3 3 3 4 4 2 2 4 3 3 3 2 5 7 8
4 4 4 4 5 6 8 9 8 5 5 5 5 5 4 5 6 4 7 9 8 10 10 5 5 5 5 4 4 4 4 4 5 3 2 4 3 3 3 3 7 7 8
4 4 5 5 5 6 9 9 9 6 5 5 6 6 6 5 5 5 5 5 5 6 7 5 5 5 5 4 4 4 4 5 5 4 2 4 3 3 4 3 6 7 8
4 4 4 5 5 6 9 9 8 4 4 6 6 6 6 6 9 9 5 5 5 5 7 9 8 7 8 8 5 2 2 2 4 3 1 2 3 3 3 3 4 7 8
4 4 5 5 6 6 9 10 8 3 4 5 5 6 9 9 10 10 6 5 6 5 4 4 6 6 5 5 6 4 3 3 3 3 2 1 2 2 4 3 2 3 4
Wind_Direction
59 58 61 60 32 354 333 308 291 295 285 283 284 290 292 292 292 274 172 200 210 232 248 255 256 258 261 262 262 258 255 253 252 253 252 251 248 248 247 245 247 254 260
55 50 58 43 16 352 328 308 305 305 302 315 323 318 306 301 289 285 222 214 225 234 250 264 271 272 270 270 270 269 262 258 258 252 251 252 249 246 243 243 248 251 257
46 41 52 44 20 5 349 342 336 331 338 346 333 325 324 311 298 290 274 232 223 232 243 256 273 278 278 276 277 276 276 272 268 263 257 255 251 247 244 247 250 251 253
38 37 42 31 15 15 1 348 3 352 349 350 335 320 314 304 300 294 297 273 244 243 246 251 268 279 283 284 284 285 284 284 280 277 271 263 256 249 248 248 249 251 253
30 35 38 24 19 18 8 352 22 8 347 333 313 300 297 291 288 299 302 294 254 214 229 255 262 273 281 290 294 294 293 289 292 290 288 280 270 261 255 253 252 253 254
30 26 34 25 22 29 14 359 357 7 348 318 313 307 293 284 285 288 286 315 324 293 259 262 242 281 290 301 305 303 302 301 298 294 293 290 283 273 267 263 261 258 255
31 30 29 23 23 38 14 357 358 2 1 350 343 324 303 275 256 274 309 329 339 353 8 351 318 276 292 301 305 305 308 308 307 303 298 295 291 285 281 276 270 269 265
22 29 35 27 22 35 23 16 14 3 3 19 9 334 331 336 354 330 357 5 359 12 12 12 1 4 350 322 324 326 322 313 307 303 301 299 295 292 285 280 279 274 271
45 22 18 27 22 34 32 14 9 21 345 336 10 26 354 300 328 320 323 26 22 16 2 2 357 351 353 2 352 350 341 327 318 310 303 301 298 294 291 285 281 282 276
80 39 8 20 25 26 21 358 5 346 21 327 328 338 295 281 297 312 320 349 6 11 356 347 349 346 350 355 2 356 346 341 329 318 310 305 303 299 298 294 288 286 286
150 146 58 0 4 17 350 360 352 339 347 289 278 301 306 308 261 256 285 309 330 333 328 327 338 336 345 359 2 359 352 341 333 325 317 311 309 307 305 301 299 297 296
178 165 181 263 303 308 297 302 315 310 300 285 281 278 265 273 281 273 275 288 295 296 303 302 310 325 349 4 358 358 348 340 331 324 317 313 313 313 309 304 306 306 305
193 205 194 209 238 255 257 265 274 284 284 280 269 271 274 274 280 276 275 285 293 293 287 295 279 335 351 9 352 349 337 334 329 323 318 314 316 318 312 305 302 303 304
201 196 202 214 221 236 250 241 238 252 266 261 265 265 269 279 286 271 265 282 296 293 281 276 301 339 328 327 336 335 324 328 327 325 321 323 326 323 316 313 310 306 303
206 197 208 223 230 230 236 238 238 247 248 247 252 257 257 260 264 268 267 247 257 282 285 277 301 330 331 318 318 310 311 315 317 317 319 324 324 323 323 321 318 313 310
208 207 217 223 230 230 227 224 236 243 244 247 238 239 243 247 257 254 249 257 247 253 269 282 285 298 315 314 312 306 295 305 304 307 312 316 319 318 316 316 317 314 310
210 216 221 223 226 228 225 223 231 233 239 247 247 243 251 248 246 250 249 257 260 251 262 278 283 294 299 300 308 303 292 286 290 295 300 306 310 312 309 310 312 311 308
218 225 231 232 235 237 230 226 236 236 231 237 242 241 250 253 247 245 244 251 255 253 255 275 285 289 285 288 292 298 297 292 288 291 294 300 304 307 305 304 306 307 307
221 225 228 236 241 240 236 233 232 235 232 234 235 237 243 241 247 248 244 247 255 264 257 266 278 283 285 290 294 293 290 290 292 291 289 297 301 301 300 300 303 303 302
223 229 230 235 241 241 239 237 235 235 235 237 236 236 239 235 240 244 246 248 252 258 259 262 268 276 279 283 287 287 293 288 291 294 290 296 296 297 296 299 302 301 302
234 237 241 243 243 240 238 234 235 236 234 238 240 241 239 235 239 244 249 245 247 251 256 260 266 277 279 287 281 278 284 294 287 277 289 291 290 283 287 291 295 296 299
239 239 240 243 245 249 246 246 245 241 238 237 242 244 242 239 243 254 260 262 259 253 251 252 258 263 271 276 278 279 290 297 292 283 293 290 282 281 279 273 291 298 299
239 244 245 245 247 246 249 254 252 251 243 241 240 240 246 242 244 237 251 260 263 264 261 257 253 257 266 269 272 277 273 273 273 277 294 286 282 278 282 288 295 294 298
236 241 243 245 249 251 250 253 253 249 244 242 239 235 236 235 236 236 234 242 246 252 257 255 245 252 259 264 258 260 263 277 279 274 251 274 285 280 295 285 284 289 297
241 241 241 241 246 253 249 251 250 241 243 247 244 238 236 232 241 246 242 243 252 257 261 257 257 263 272 278 278 276 269 274 280 280 252 255 281 297 290 278 282 294 300
240 244 248 244 244 249 247 247 245 237 244 250 247 241 241 244 246 245 236 231 245 253 252 259 259 265 267 270 269 245 233 247 263 272 253 250 277 312 300 282 280 293 295